When you browse on this site, cookies collect data to enhance your experience and personalize the content and advertising you see.
Visit our Privacy Policy to learn more. By continuing to use the site, you agree to this use of cookies and data.
  • In Lithuania
  • List of Countries
  • For 7 days
  • Water Temperature
  • Satellite Maps
  • Weather Map
  • Weather Widgets
  • user-avatar
    Login

    Hourly Weather Letnyaya Stavka

    Today, 23 February, Saturday

    Time Temperature Precipitation Wind Pressure Humidity
    00:00 +3°C° 0 mm 3 mps 750 mmHg 73%
    01:00 +2°C° 0 mm 3 mps 751 mmHg 74%
    02:00 +2°C° 0 mm 3 mps 751 mmHg 75%
    03:00 +2°C° 0 mm 3 mps 751 mmHg 76%
    04:00 +1°C° 0 mm 3 mps 751 mmHg 77%
    05:00 +1°C° 0 mm 3 mps 752 mmHg 78%
    06:00 +1°C° 0 mm 3 mps 752 mmHg 79%
    07:00 +2°C° 0 mm 3 mps 752 mmHg 78%
    08:00 +1°C° 0 mm 4 mps 753 mmHg 77%
    09:00 +3°C° 0 mm 4 mps 753 mmHg 76%
    10:00 +3°C° 0 mm 5 mps 753 mmHg 74%
    11:00 +5°C° 0 mm 5 mps 753 mmHg 72%
    12:00 +6°C° 0 mm 5 mps 753 mmHg 69%
    13:00 +6°C° 0 mm 4 mps 753 mmHg 68%
    14:00 +6°C° 0 mm 4 mps 753 mmHg 67%
    15:00 +8°C° 0 mm 3 mps 753 mmHg 65%
    16:00 +7°C° 0 mm 3 mps 753 mmHg 68%
    17:00 +7°C° 0 mm 2 mps 753 mmHg 70%
    18:00 +8°C° 0 mm 1 mps 754 mmHg 73%
    19:00 +7°C° 0.1 mm 1 mps 754 mmHg 75%
    20:00 +6°C° 0.1 mm 2 mps 754 mmHg 76%
    21:00 +6°C° 0.1 mm 2 mps 755 mmHg 78%
    22:00 +5°C° 0 mm 2 mps 755 mmHg 79%
    23:00 +5°C° 0 mm 2 mps 755 mmHg 80%

    Tomorrow, 24 February, Sunday

    Time Temperature Precipitation Wind Pressure Humidity
    00:00 +4°C° 0 mm 2 mps 755 mmHg 81%
    01:00 +4°C° 0 mm 2 mps 755 mmHg 82%
    02:00 +5°C° 0 mm 1 mps 755 mmHg 83%
    03:00 +4°C° 0 mm 1 mps 755 mmHg 83%
    04:00 +4°C° 0 mm 1 mps 755 mmHg 85%
    05:00 +3°C° 0 mm 1 mps 755 mmHg 87%
    06:00 +3°C° 0 mm 1 mps 755 mmHg 89%
    07:00 +3°C° 0 mm 1 mps 756 mmHg 87%
    08:00 +3°C° 0 mm 2 mps 756 mmHg 85%
    09:00 +3°C° 0 mm 2 mps 756 mmHg 83%
    10:00 +4°C° 0 mm 2 mps 756 mmHg 82%
    11:00 +3°C° 0 mm 3 mps 756 mmHg 80%
    12:00 +3°C° 0 mm 3 mps 756 mmHg 79%
    13:00 +3°C° 0.3 mm 4 mps 756 mmHg 79%
    14:00 +1°C° 0.3 mm 4 mps 756 mmHg 80%
    15:00 +1°C° 0.3 mm 4 mps 756 mmHg 81%
    16:00 0°C° 0.1 mm 4 mps 757 mmHg 82%
    17:00 0°C° 0.1 mm 4 mps 757 mmHg 83%
    18:00 +1°C° 0.1 mm 3 mps 757 mmHg 84%
    19:00 0°C° 0 mm 3 mps 757 mmHg 84%
    20:00 0°C° 0 mm 3 mps 758 mmHg 84%
    21:00 -1°C° 0 mm 4 mps 758 mmHg 85%
    22:00 -2°C° 0 mm 4 mps 758 mmHg 85%
    23:00 -2°C° 0 mm 4 mps 758 mmHg 86%

    Day after tomorrow, 25 February, Monday

    Time Temperature Precipitation Wind Pressure Humidity
    00:00 -3°C° 0 mm 4 mps 758 mmHg 86%
    01:00 -3°C° 0 mm 4 mps 758 mmHg 85%
    02:00 -4°C° 0 mm 4 mps 758 mmHg 84%
    03:00 -4°C° 0 mm 4 mps 758 mmHg 83%
    04:00 -4°C° 0 mm 4 mps 758 mmHg 82%
    05:00 -5°C° 0 mm 4 mps 757 mmHg 81%
    06:00 -5°C° 0 mm 4 mps 757 mmHg 80%
    07:00 -5°C° 0 mm 5 mps 757 mmHg 76%
    08:00 -5°C° 0 mm 5 mps 757 mmHg 72%
    09:00 -5°C° 0 mm 5 mps 757 mmHg 69%
    10:00 -2°C° 0 mm 5 mps 757 mmHg 60%
    11:00 -2°C° 0 mm 6 mps 756 mmHg 52%
    12:00 -1°C° 0 mm 6 mps 756 mmHg 43%
    13:00 +1°C° 0 mm 6 mps 755 mmHg 44%
    14:00 0°C° 0 mm 7 mps 754 mmHg 45%
    15:00 +2°C° 0 mm 7 mps 754 mmHg 46%
    16:00 +1°C° 0 mm 6 mps 753 mmHg 52%
    17:00 0°C° 0 mm 5 mps 753 mmHg 57%
    18:00 -1°C° 0 mm 5 mps 752 mmHg 63%
    19:00 -1°C° 0 mm 5 mps 752 mmHg 65%
    20:00 -1°C° 0 mm 5 mps 751 mmHg 68%
    21:00 -2°C° 0 mm 6 mps 751 mmHg 70%
    22:00 -2°C° 0 mm 6 mps 750 mmHg 72%
    23:00 -3°C° 0 mm 6 mps 750 mmHg 73%

    26 February, Tuesday

    Time Temperature Precipitation Wind Pressure Humidity
    00:00 -3°C° 0 mm 7 mps 749 mmHg 75%
    01:00 -3°C° 0 mm 7 mps 748 mmHg 74%
    02:00 -4°C° 0 mm 8 mps 747 mmHg 74%
    03:00 -4°C° 0 mm 8 mps 747 mmHg 73%
    04:00 -4°C° 0 mm 9 mps 746 mmHg 73%
    05:00 -3°C° 0 mm 9 mps 745 mmHg 73%
    06:00 -3°C° 0 mm 9 mps 745 mmHg 73%
    07:00 -3°C° 0.3 mm 10 mps 744 mmHg 74%
    08:00 -2°C° 0.3 mm 10 mps 744 mmHg 74%
    09:00 -2°C° 0.3 mm 11 mps 744 mmHg 75%
    10:00 -2°C° 0.1 mm 11 mps 744 mmHg 72%
    11:00 -2°C° 0.1 mm 10 mps 743 mmHg 70%
    12:00 -2°C° 0.1 mm 10 mps 743 mmHg 67%
    13:00 -2°C° 0 mm 10 mps 742 mmHg 66%
    14:00 0°C° 0 mm 10 mps 742 mmHg 64%
    15:00 0°C° 0 mm 10 mps 741 mmHg 63%
    16:00 -1°C° 0 mm 8 mps 741 mmHg 66%
    17:00 -1°C° 0 mm 7 mps 741 mmHg 68%
    18:00 -2°C° 0 mm 6 mps 740 mmHg 71%
    19:00 -2°C° 0 mm 6 mps 740 mmHg 74%
    20:00 -2°C° 0 mm 6 mps 740 mmHg 78%
    21:00 -3°C° 0 mm 6 mps 740 mmHg 81%
    22:00 -3°C° 0 mm 6 mps 740 mmHg 81%
    23:00 -3°C° 0 mm 6 mps 739 mmHg 82%

    27 February, Wednesday

    Time Temperature Precipitation Wind Pressure Humidity
    00:00 -4°C° 0 mm 5 mps 739 mmHg 82%
    01:00 -4°C° 0 mm 5 mps 739 mmHg 83%
    02:00 -3°C° 0 mm 4 mps 738 mmHg 83%
    03:00 -2°C° 0 mm 4 mps 738 mmHg 83%
    04:00 -2°C° 0 mm 3 mps 738 mmHg 85%
    05:00 -2°C° 0 mm 2 mps 738 mmHg 87%
    06:00 -2°C° 0 mm 2 mps 737 mmHg 89%
    07:00 -1°C° 0.1 mm 2 mps 738 mmHg 86%
    08:00 -1°C° 0.1 mm 2 mps 738 mmHg 84%
    09:00 +1°C° 0.1 mm 2 mps 738 mmHg 81%
    10:00 +1°C° 0.1 mm 2 mps 738 mmHg 78%
    11:00 +2°C° 0.1 mm 2 mps 738 mmHg 74%
    12:00 +3°C° 0.1 mm 2 mps 738 mmHg 70%
    13:00 +4°C° 0.1 mm 1 mps 738 mmHg 68%
    14:00 +5°C° 0.1 mm 1 mps 738 mmHg 67%
    15:00 +5°C° 0.1 mm 1 mps 738 mmHg 65%
    16:00 +4°C° 0 mm 1 mps 738 mmHg 69%
    17:00 +4°C° 0 mm 1 mps 738 mmHg 73%
    18:00 +3°C° 0 mm 1 mps 739 mmHg 77%
    19:00 +2°C° 0 mm 2 mps 739 mmHg 80%
    20:00 +2°C° 0 mm 2 mps 740 mmHg 83%
    21:00 +1°C° 0 mm 3 mps 740 mmHg 86%
    22:00 0°C° 0.2 mm 3 mps 740 mmHg 87%
    23:00 0°C° 0.2 mm 3 mps 741 mmHg 88%

    28 February, Thursday

    Time Temperature Precipitation Wind Pressure Humidity
    00:00 -1°C° 0.2 mm 3 mps 741 mmHg 89%
    01:00 -1°C° 0 mm 3 mps 741 mmHg 90%
    02:00 -2°C° 0 mm 2 mps 741 mmHg 90%
    03:00 -3°C° 0 mm 2 mps 742 mmHg 91%
    04:00 -4°C° 0 mm 3 mps 742 mmHg 91%
    05:00 -4°C° 0 mm 3 mps 742 mmHg 91%
    06:00 -4°C° 0 mm 3 mps 743 mmHg 92%
    07:00 -4°C° 0 mm 4 mps 743 mmHg 87%
    08:00 -4°C° 0 mm 5 mps 743 mmHg 81%
    09:00 -2°C° 0 mm 5 mps 743 mmHg 76%
    10:00 -2°C° 0 mm 6 mps 743 mmHg 72%
    11:00 -1°C° 0 mm 6 mps 743 mmHg 69%
    12:00 +1°C° 0 mm 6 mps 743 mmHg 65%
    13:00 0°C° 0 mm 7 mps 742 mmHg 64%
    14:00 0°C° 0 mm 7 mps 742 mmHg 63%
    15:00 0°C° 0 mm 7 mps 741 mmHg 62%
    16:00 -1°C° 0 mm 6 mps 741 mmHg 66%
    17:00 -1°C° 0 mm 6 mps 741 mmHg 69%
    18:00 -1°C° 0 mm 5 mps 741 mmHg 73%
    19:00 -1°C° 0 mm 5 mps 741 mmHg 75%
    20:00 -2°C° 0 mm 6 mps 741 mmHg 76%
    21:00 -3°C° 0 mm 6 mps 741 mmHg 78%
    22:00 -2°C° 0 mm 6 mps 740 mmHg 76%
    23:00 -2°C° 0 mm 7 mps 740 mmHg 74%
    Show more